Nampa, ID

11:56 AM MST on November 12, 2019 (GMT -0700)
Nampa

Weather History for KMAN - August, 2019

Change the Weather History Date:

Sunday, August 18, 2019

  Actual Average (KBOI) Record (KBOI)
Temperature  
Mean Temperature 72 °F -  
Max Temperature 93 °F 86 °F 104 °F (1903)
Min Temperature 51 °F 57 °F 38 °F (1995)
Cooling Degree Days 7    
Growing Degree Days 22 (Base 50)    
Moisture  
Dew Point 47 °F    
Average Humidity 48    
Maximum Humidity 94    
Minimum Humidity 16    
Precipitation  
Precipitation 0.00 in - - ()
Sea Level Pressure  
Sea Level Pressure 29.83 in    
Wind  
Wind Speed 2 mph (East)    
Max Wind Speed 8 mph    
Max Gust Speed 13 mph    
Visibility 10 miles    
Events      
Averages and records for this station are not official NWS values.
T = Trace of Precipitation, MM = Missing Value Source: NWS Daily Summary

Daily Weather History Graph

Daily Weather History Graph

Search for Another Location

Airport or City:

Astronomy

Aug. 18, 2019 Rise Set
Actual Time 6:54 AM MDT 8:45 PM MDT
Civil Twilight 6:23 AM MDT 9:15 PM MDT
Nautical Twilight 5:45 AM MDT 9:53 PM MDT
Astronomical Twilight 5:04 AM MDT 10:33 PM MDT
Moon 10:36 PM MDT (8/18) 9:47 AM MDT (8/18)
Length of Visible Light 14h 52m
Length of Day
13h 51m
Waning Gibbous, 91% of the Moon is Illuminated
Aug 18
Waning Gibbous
Aug 23
Last Quarter
Aug 30
New
Sep 5
First Quarter
Sep 13
Full

Hourly Weather History & Observations

Time (MDT) Temp. Dew Point Humidity Pressure Visibility Wind Dir Wind Speed Gust Speed Precip Events Conditions
12:15 AM 62.6 °F 50.0 °F 63% 29.82 in 10.0 mi Calm Calm - N/A   Unknown
12:35 AM 68.0 °F 48.2 °F 49% 29.83 in 10.0 mi Calm Calm - N/A   Unknown
12:55 AM 60.8 °F 50.0 °F 68% 29.83 in 10.0 mi Calm Calm - N/A   Unknown
1:15 AM 59.0 °F 51.8 °F 77% 29.83 in 10.0 mi SE 5.8 mph - N/A   Unknown
1:35 AM 59.0 °F 50.0 °F 72% 29.83 in 10.0 mi SE 4.6 mph - N/A   Unknown
1:55 AM 59.0 °F 50.0 °F 72% 29.83 in 10.0 mi Calm Calm - N/A   Clear
2:15 AM 59.0 °F 50.0 °F 72% 29.83 in 10.0 mi Calm Calm - N/A   Clear
2:35 AM 59.0 °F 48.2 °F 67% 29.83 in 10.0 mi Calm Calm - N/A   Clear
2:55 AM 57.2 °F 48.2 °F 72% 29.83 in 10.0 mi ESE 3.5 mph - N/A   Clear
3:15 AM 57.2 °F 48.2 °F 72% 29.83 in 10.0 mi Calm Calm - N/A   Clear
3:35 AM 57.2 °F 48.2 °F 72% 29.84 in 10.0 mi Calm Calm - N/A   Clear
3:55 AM 59.0 °F 50.0 °F 72% 29.84 in 10.0 mi Calm Calm - N/A   Unknown
4:15 AM 55.4 °F 51.8 °F 88% 29.84 in 10.0 mi Calm Calm - N/A   Unknown
4:35 AM 55.4 °F 50.0 °F 82% 29.85 in 10.0 mi SSE 4.6 mph - N/A   Unknown
4:55 AM 53.6 °F 51.8 °F 94% 29.85 in 10.0 mi Calm Calm - N/A   Unknown
5:15 AM 53.6 °F 51.8 °F 94% 29.85 in 10.0 mi Calm Calm - N/A   Unknown
5:35 AM 55.4 °F 53.6 °F 94% 29.85 in 10.0 mi Calm Calm - N/A   Clear
5:55 AM 51.8 °F 50.0 °F 94% 29.86 in 10.0 mi Calm Calm - N/A   Clear
6:15 AM 51.8 °F 50.0 °F 94% 29.87 in 10.0 mi Calm Calm - N/A   Unknown
6:35 AM 51.8 °F 48.2 °F 88% 29.87 in 10.0 mi SSE 3.5 mph - N/A   Unknown
6:55 AM 51.8 °F 48.2 °F 88% 29.87 in 10.0 mi East 3.5 mph - N/A   Unknown
7:15 AM 51.8 °F 48.2 °F 88% 29.88 in 10.0 mi Calm Calm - N/A   Clear
7:35 AM 53.6 °F 50.0 °F 88% 29.88 in 10.0 mi ESE 3.5 mph - N/A   Clear
7:55 AM 55.4 °F 48.2 °F 77% 29.89 in 10.0 mi Calm Calm - N/A   Clear
8:15 AM 57.2 °F 48.2 °F 72% 29.89 in 10.0 mi Calm Calm - N/A   Clear
8:35 AM 60.8 °F 48.2 °F 63% 29.89 in 10.0 mi Calm Calm - N/A   Clear
8:55 AM 62.6 °F 48.2 °F 59% 29.90 in 10.0 mi SE 5.8 mph - N/A   Clear
9:15 AM 66.2 °F 51.8 °F 60% 29.90 in 10.0 mi Calm Calm - N/A   Clear
9:35 AM 68.0 °F 51.8 °F 56% 29.90 in 10.0 mi Calm Calm - N/A   Clear
9:55 AM 71.6 °F 48.2 °F 43% 29.90 in 10.0 mi Calm Calm - N/A   Clear
10:15 AM 71.6 °F 48.2 °F 43% 29.90 in 10.0 mi Calm Calm - N/A   Clear
10:55 AM 75.2 °F 48.2 °F 38% 29.90 in 10.0 mi Calm Calm - N/A   Clear
11:15 AM 75.2 °F 44.6 °F 34% 29.90 in 10.0 mi Calm Calm - N/A   Clear
11:35 AM 78.8 °F 44.6 °F 30% 29.90 in 10.0 mi Calm Calm - N/A   Clear
11:55 AM 78.8 °F 44.6 °F 30% 29.90 in 9.0 mi Calm Calm - N/A   Clear
12:15 PM 80.6 °F 44.6 °F 28% 29.89 in 10.0 mi ENE 3.5 mph - N/A   Clear
12:35 PM 80.6 °F 42.8 °F 26% 29.89 in 9.0 mi Calm Calm - N/A   Clear
12:55 PM 82.4 °F 44.6 °F 26% 29.88 in 10.0 mi Calm Calm - N/A   Clear
1:15 PM 84.2 °F 44.6 °F 25% 29.88 in 8.0 mi SSE 4.6 mph - N/A   Clear
1:35 PM 84.2 °F 44.6 °F 25% 29.87 in 9.0 mi Calm Calm - N/A   Clear
1:55 PM 86.0 °F 44.6 °F 23% 29.86 in 9.0 mi Calm Calm - N/A   Clear
2:15 PM 86.0 °F 44.6 °F 23% 29.85 in 8.0 mi Calm Calm - N/A   Clear
2:35 PM 87.8 °F 42.8 °F 21% 29.84 in 10.0 mi Variable 4.6 mph - N/A   Clear
2:55 PM 89.6 °F 42.8 °F 20% 29.84 in 9.0 mi Calm Calm - N/A   Clear
3:15 PM 89.6 °F 42.8 °F 20% 29.83 in 10.0 mi ENE 4.6 mph - N/A   Clear
3:35 PM 89.6 °F 44.6 °F 21% 29.82 in 10.0 mi Variable 6.9 mph - N/A   Clear
3:55 PM 89.6 °F 42.8 °F 20% 29.81 in 10.0 mi East 5.8 mph - N/A   Clear
4:15 PM 91.4 °F 41.0 °F 17% 29.80 in 10.0 mi Calm Calm - N/A   Clear
4:35 PM 91.4 °F 41.0 °F 17% 29.79 in 10.0 mi ENE 5.8 mph - N/A   Clear
4:55 PM 91.4 °F 41.0 °F 17% 29.78 in 10.0 mi NNE 8.1 mph - N/A   Clear
5:15 PM 93.2 °F 41.0 °F 16% 29.78 in 10.0 mi Variable 5.8 mph - N/A   Clear
5:35 PM 93.2 °F 41.0 °F 16% 29.77 in 10.0 mi NNE 6.9 mph 12.7 mph N/A   Clear
5:55 PM 93.2 °F 41.0 °F 16% 29.76 in 10.0 mi North 6.9 mph - N/A   Clear
6:15 PM 93.2 °F 41.0 °F 16% 29.76 in 10.0 mi NNE 8.1 mph - N/A   Clear
6:35 PM 91.4 °F 39.2 °F 16% 29.75 in 10.0 mi East 4.6 mph - N/A   Clear
6:55 PM 93.2 °F 41.0 °F 16% 29.75 in 10.0 mi Variable 3.5 mph - N/A   Clear
7:15 PM 91.4 °F 41.0 °F 17% 29.75 in 10.0 mi North 3.5 mph - N/A   Clear
7:35 PM 91.4 °F 42.8 °F 18% 29.74 in 10.0 mi NW 5.8 mph - N/A   Clear
7:55 PM 91.4 °F 44.6 °F 20% 29.74 in 10.0 mi NW 5.8 mph - N/A   Clear
8:15 PM 89.6 °F 44.6 °F 21% 29.74 in 10.0 mi Calm Calm - N/A   Clear
8:35 PM 87.8 °F 44.6 °F 22% 29.74 in 10.0 mi Calm Calm - N/A   Clear
8:55 PM 82.4 °F 51.8 °F 35% 29.74 in 10.0 mi Calm Calm - N/A   Clear
9:15 PM 78.8 °F 50.0 °F 36% 29.75 in 10.0 mi Calm Calm - N/A   Clear
9:35 PM 75.2 °F 51.8 °F 44% 29.75 in 10.0 mi Calm Calm - N/A   Clear
9:55 PM 75.2 °F 50.0 °F 41% 29.76 in 10.0 mi Calm Calm - N/A   Clear
10:15 PM 75.2 °F 50.0 °F 41% 29.76 in 10.0 mi Calm Calm - N/A   Unknown
10:35 PM 71.6 °F 53.6 °F 53% 29.76 in 10.0 mi Calm Calm - N/A   Clear
10:55 PM 71.6 °F 51.8 °F 50% 29.77 in 10.0 mi Calm Calm - N/A   Clear
11:15 PM 73.4 °F 51.8 °F 47% 29.77 in 10.0 mi East 3.5 mph - N/A   Unknown
11:35 PM 66.2 °F 53.6 °F 64% 29.77 in 10.0 mi SE 4.6 mph - N/A   Unknown
11:55 PM 66.2 °F 51.8 °F 60% 29.77 in 10.0 mi ESE 5.8 mph - N/A   Unknown